Wind_Speed
20 18 15 13 14 14 13 12 12 12 14 13 13 14 17 17 17 15 15 12 11 10 9 4 3 7 7 6 7 12 11 6 3 6 11 19 20 14 5 7 9 10 10 15 19
24 22 19 16 13 14 12 12 13 14 13 14 12 14 17 17 17 16 16 15 13 13 12 5 4 7 8 6 9 11 6 1 1 5 13 17 20 23 17 10 9 6 5 10 20
28 28 25 20 17 16 15 12 14 14 13 15 15 14 14 18 19 17 18 16 15 14 12 7 5 6 6 7 8 7 4 1 6 5 9 16 16 18 19 15 12 7 6 12 20
31 32 31 28 23 19 16 16 15 14 17 16 17 16 15 18 19 18 19 18 16 15 14 10 5 4 5 7 6 3 4 1 5 2 5 12 12 13 16 15 14 13 12 13 16
27 29 31 31 26 23 19 18 16 17 17 16 17 19 17 19 20 19 20 19 17 16 16 13 8 5 3 3 4 1 2 8 4 1 2 8 8 10 10 12 14 15 17 16 17
24 24 25 27 27 25 22 19 17 17 17 17 17 18 20 19 20 20 21 20 20 19 18 11 8 7 5 2 3 3 5 7 9 5 5 6 7 6 7 8 11 14 15 18 22
23 23 22 22 23 22 19 19 18 17 17 18 18 19 22 21 20 21 22 22 23 20 19 13 10 10 7 4 3 4 9 7 6 3 6 6 7 5 6 7 9 13 17 19 21
25 24 22 20 20 19 16 18 19 18 18 19 18 20 22 23 21 22 22 22 21 18 17 13 12 9 9 7 8 9 13 9 7 5 6 6 8 9 8 9 11 17 23 23 25
25 24 22 19 19 18 17 18 19 19 20 20 20 22 24 25 22 22 22 22 21 20 20 16 14 12 10 9 7 13 10 9 7 6 7 7 9 10 11 13 14 19 23 24 24
25 25 23 19 17 18 17 19 19 20 21 20 20 20 24 26 24 23 22 21 20 21 21 20 17 14 15 13 8 12 13 11 9 6 8 8 10 13 13 16 18 18 22 26 25
27 25 24 20 17 18 18 19 19 19 20 20 19 21 24 28 27 24 24 22 20 21 23 21 20 14 11 14 22 17 14 13 10 9 10 13 14 16 16 19 20 19 23 25 26
29 27 25 22 19 19 19 18 20 20 19 18 19 21 24 28 28 27 26 23 22 23 25 22 21 20 20 24 21 19 18 17 13 10 15 18 18 16 16 18 20 22 25 26 25
31 29 26 23 20 20 20 19 20 20 19 17 17 21 25 28 30 28 26 24 24 24 25 24 24 24 23 23 22 19 20 16 17 15 18 22 20 16 16 19 21 23 25 27 29
33 30 28 25 22 20 21 21 21 21 19 19 19 20 25 29 30 29 29 30 28 27 27 25 26 25 23 18 18 20 15 17 18 19 23 23 20 17 19 19 22 23 26 27 31
34 32 30 27 24 22 22 22 22 22 21 21 20 19 24 31 30 30 29 30 30 29 28 25 26 27 20 16 17 17 16 19 21 24 27 20 18 17 16 19 21 24 26 29 31
35 33 31 29 26 24 24 23 23 22 23 20 20 21 25 30 32 32 30 30 30 29 29 31 30 27 22 19 21 19 19 21 23 24 20 21 17 16 16 22 22 26 26 25 26
38 35 32 31 27 26 25 25 24 24 22 20 21 21 23 27 32 32 29 29 30 30 29 29 28 26 21 22 22 20 18 16 14 14 14 19 19 14 21 20 26 25 24 21 24
39 36 35 32 29 28 27 26 26 26 25 22 21 21 23 23 29 35 30 29 33 30 30 29 29 23 19 21 20 20 18 12 15 12 13 22 19 19 18 20 22 23 20 21 24
41 38 38 33 31 30 29 27 27 27 24 23 21 22 22 22 24 31 31 27 29 29 30 30 23 27 23 23 22 21 18 16 17 15 15 16 20 17 19 20 24 21 19 21 23
42 41 40 36 33 32 31 28 26 26 24 23 23 21 22 21 21 26 33 30 27 28 33 35 28 27 24 23 21 22 17 15 14 12 14 17 22 18 23 24 22 19 19 20 22
44 43 41 39 36 35 32 28 27 26 24 23 23 22 22 21 21 23 27 30 27 31 34 35 34 29 25 26 24 18 16 17 14 18 15 17 18 30 28 23 20 18 19 20 21
46 45 43 42 39 35 33 30 28 26 24 23 21 20 20 19 20 22 23 26 29 33 32 35 37 29 28 24 20 19 17 18 14 18 22 25 24 26 25 22 18 16 18 19 19
48 46 45 43 40 36 34 32 31 28 26 23 22 20 18 17 20 23 25 26 28 31 34 37 36 30 27 28 24 22 22 19 22 23 24 23 24 26 22 18 16 15 17 18 17
48 48 47 44 42 38 36 34 33 29 27 24 22 21 19 17 17 21 23 28 30 34 35 34 34 31 23 24 23 20 20 21 22 25 22 24 23 19 18 16 14 14 16 17 17
51 51 48 47 43 42 39 36 34 30 28 26 23 22 21 20 18 18 22 27 32 36 34 32 29 27 25 25 23 21 17 23 25 23 21 23 19 16 15 13 13 14 15 17 18
55 51 50 47 44 42 41 39 37 34 30 26 24 23 22 23 26 26 25 29 34 34 31 29 27 26 28 25 26 23 19 22 19 18 17 16 16 14 13 12 12 13 15 17 19
56 52 50 49 47 46 43 42 40 35 33 29 26 26 25 25 24 24 24 27 31 35 31 29 28 28 26 27 32 18 16 14 17 15 14 13 12 12 12 12 12 13 15 17 18
Wind_Direction
269 270 264 255 260 264 255 252 244 238 237 222 225 217 206 208 205 204 196 200 197 189 201 223 111 117 114 107 108 98 104 95 34 64 71 54 39 29 18 61 59 75 74 53 32
265 265 265 264 257 262 261 252 254 240 234 225 225 216 205 209 208 207 200 195 200 192 203 199 140 123 110 113 97 88 132 146 283 97 65 50 58 51 53 54 54 85 75 26 1
261 263 266 263 258 253 257 248 251 246 234 230 222 218 209 206 212 208 203 198 200 200 215 184 124 140 115 130 113 99 166 329 190 129 58 50 57 48 48 48 56 55 16 342 344
257 259 262 262 257 254 252 252 251 248 239 223 221 212 214 209 212 210 204 203 200 197 214 197 147 136 150 133 124 123 90 304 182 138 50 50 62 38 54 45 38 32 24 351 342
257 255 257 260 259 255 253 258 251 241 235 224 214 203 202 207 208 207 206 205 200 199 212 203 180 169 162 147 112 72 200 182 221 215 351 25 48 28 35 46 26 20 23 2 344
253 253 253 254 258 257 255 253 239 229 230 229 214 207 203 202 207 206 205 203 204 201 215 205 199 183 167 184 149 176 209 196 239 260 329 350 2 13 5 34 26 5 2 3 347
247 248 250 251 251 251 244 234 220 218 226 230 222 206 210 200 206 207 205 207 207 206 211 202 203 203 194 167 144 206 211 216 258 287 1 318 329 341 357 18 12 351 350 351 349
250 246 246 247 242 236 229 222 210 216 220 224 217 206 207 200 203 208 203 209 216 215 216 205 200 205 213 227 178 195 222 240 274 308 332 342 335 346 341 349 357 9 357 352 353
248 247 245 242 235 227 216 213 211 212 214 214 213 204 202 197 200 203 208 211 211 213 216 215 205 199 206 200 209 206 230 243 269 304 314 321 345 350 354 346 355 354 346 347 346
244 246 244 239 232 221 211 212 213 214 211 210 208 202 196 197 198 200 206 213 215 216 214 218 216 204 208 198 220 226 234 243 264 293 304 312 323 340 344 350 349 348 340 340 335
240 243 243 239 229 221 212 211 211 213 211 209 208 203 199 198 198 198 201 205 208 215 214 218 225 210 209 206 231 228 239 257 271 291 303 312 320 330 331 333 334 339 335 335 332
236 237 239 235 229 220 214 211 212 213 214 210 212 206 202 202 198 197 200 202 202 208 213 212 217 223 214 216 223 225 241 252 274 286 299 308 316 322 323 330 332 334 328 325 324
234 231 233 233 229 219 216 211 214 214 215 214 215 208 207 204 201 198 197 197 196 204 206 209 205 215 222 226 232 235 238 258 280 296 296 303 304 320 329 333 328 325 321 321 325
233 230 228 229 227 221 216 211 211 214 215 216 219 210 212 204 203 203 198 196 198 198 204 210 218 221 228 236 237 237 245 265 280 283 291 306 303 314 320 324 320 316 315 319 321
229 228 225 223 224 219 217 214 209 210 213 211 215 208 210 206 203 204 205 203 201 197 202 210 219 229 234 240 232 227 242 265 274 281 293 301 303 304 316 319 313 311 318 318 321
227 227 224 220 220 217 214 213 209 209 216 210 213 208 210 209 205 206 207 204 206 204 204 206 214 224 228 231 229 232 243 262 274 282 296 297 312 308 316 316 320 319 321 322 323
226 223 222 219 215 216 213 210 209 210 210 212 210 209 211 215 210 208 211 210 209 209 210 212 217 220 222 226 225 239 256 274 279 293 295 301 316 303 311 313 321 319 320 323 325
221 220 221 217 212 213 212 208 207 210 209 207 206 206 210 213 215 212 210 210 211 207 209 215 215 218 224 218 228 249 260 235 269 277 286 292 313 315 313 320 322 323 324 326 329
218 219 219 214 210 211 212 208 208 210 209 206 206 209 208 210 208 212 215 215 214 210 210 212 205 211 210 216 227 241 240 247 265 278 296 287 318 315 321 318 320 323 325 329 328
215 217 217 214 210 211 212 209 210 212 210 207 211 207 210 208 206 209 214 217 213 210 213 210 206 208 207 217 227 237 249 261 277 279 300 297 308 306 322 323 322 322 326 329 329
212 215 215 214 209 211 211 208 210 212 212 210 214 210 211 209 205 205 211 214 211 208 214 210 212 205 210 218 228 241 256 264 262 273 278 292 298 298 320 321 319 321 326 329 332
212 213 214 214 210 209 208 206 210 211 214 215 218 218 217 213 207 205 206 209 207 209 211 213 214 209 214 220 235 245 247 266 267 283 287 293 295 306 314 319 317 323 326 331 331
212 212 214 213 210 206 206 206 212 208 213 213 218 223 223 214 201 192 202 208 206 205 204 210 216 219 217 225 235 243 256 266 280 287 288 292 288 308 310 311 313 323 330 330 330
211 211 212 213 211 208 205 205 211 207 212 214 218 219 215 211 204 190 198 204 200 197 198 207 212 215 224 237 239 250 253 270 285 289 282 295 295 302 305 306 312 327 329 329 333
209 211 212 211 209 207 204 204 210 208 210 212 212 218 213 198 192 193 202 203 196 192 196 204 210 215 220 226 234 234 252 276 291 291 280 285 295 299 299 300 318 326 325 333 334
208 209 210 210 208 208 205 203 207 206 207 208 207 208 199 197 195 188 197 201 196 191 199 203 209 217 228 232 238 232 265 285 282 282 285 285 290 291 293 307 320 322 326 334 334
210 208 208 207 206 206 204 203 205 205 204 206 202 199 197 196 195 195 197 196 195 195 201 207 212 217 225 238 256 229 271 272 287 291 293 294 299 295 300 309 314 321 323 333 334
Height
5859 5860 5862 5864 5865 5865 5866 5868 5869 5871 5874 5876 5879 5884 5886 5887 5889 5890 5892 5895 5896 5898 5899 5901 5904 5907 5908 5909 5911 5912 5915 5916 5914 5913 5910 5906 5902 5899 5898 5896 5895 5895 5894 5893 5890
5856 5857 5859 5860 5862 5862 5863 5866 5867 5869 5871 5873 5877 5882 5884 5886 5887 5888 5892 5894 5894 5897 5899 5901 5905 5907 5908 5910 5911 5912 5919 5915 5914 5911 5908 5906 5904 5901 5898 5898 5896 5895 5894 5892 5890
5851 5852 5853 5857 5859 5861 5862 5863 5865 5867 5867 5871 5875 5880 5882 5883 5885 5886 5889 5893 5894 5896 5898 5901 5905 5907 5908 5909 5911 5912 5914 5914 5913 5910 5908 5906 5904 5902 5900 5899 5898 5895 5894 5892 5889
5846 5847 5848 5851 5854 5857 5859 5861 5863 5862 5866 5868 5872 5876 5879 5881 5884 5885 5887 5891 5893 5895 5898 5901 5905 5907 5908 5909 5910 5912 5912 5912 5912 5910 5907 5906 5905 5903 5901 5900 5898 5896 5893 5891 5888
5840 5842 5843 5844 5848 5851 5855 5856 5858 5860 5863 5865 5869 5873 5876 5878 5881 5883 5885 5888 5891 5893 5897 5900 5904 5906 5908 5909 5910 5911 5911 5912 5911 5910 5909 5906 5905 5904 5901 5899 5898 5896 5892 5890 5888
5836 5837 5838 5840 5842 5846 5849 5852 5854 5857 5860 5862 5866 5870 5873 5875 5878 5881 5883 5887 5888 5892 5895 5899 5902 5904 5907 5909 5910 5911 5911 5911 5911 5910 5909 5907 5905 5903 5901 5899 5897 5895 5892 5889 5887
5832 5833 5835 5837 5839 5841 5845 5848 5850 5853 5856 5859 5863 5865 5870 5873 5875 5878 5881 5884 5886 5890 5893 5897 5900 5903 5906 5908 5910 5911 5910 5909 5910 5911 5908 5906 5905 5902 5901 5899 5897 5895 5892 5888 5884
5827 5829 5831 5834 5836 5838 5840 5843 5846 5849 5852 5855 5859 5862 5867 5869 5872 5876 5878 5881 5885 5890 5892 5896 5900 5902 5905 5908 5909 5909 5910 5909 5909 5909 5907 5906 5904 5902 5900 5898 5896 5893 5889 5885 5881
5822 5824 5827 5830 5832 5834 5837 5839 5843 5845 5849 5851 5855 5858 5863 5866 5870 5873 5876 5879 5883 5888 5890 5894 5899 5900 5903 5906 5908 5909 5910 5909 5909 5907 5906 5905 5903 5901 5899 5896 5893 5890 5886 5882 5879
5816 5819 5823 5825 5828 5830 5833 5835 5838 5842 5845 5848 5850 5855 5859 5863 5867 5870 5873 5877 5881 5885 5890 5893 5896 5899 5901 5905 5908 5908 5908 5908 5908 5907 5905 5903 5902 5900 5897 5894 5891 5887 5883 5880 5877
5810 5814 5817 5821 5823 5826 5829 5832 5836 5839 5841 5844 5847 5850 5854 5858 5863 5867 5870 5874 5878 5882 5886 5891 5894 5897 5900 5903 5902 5905 5906 5906 5906 5905 5904 5902 5900 5897 5895 5892 5889 5885 5881 5878 5875
5804 5808 5813 5817 5819 5821 5825 5828 5831 5835 5838 5840 5842 5846 5850 5854 5859 5863 5867 5872 5876 5879 5882 5888 5891 5895 5896 5898 5899 5901 5903 5903 5904 5902 5902 5900 5899 5896 5893 5889 5885 5880 5877 5875 5873
5797 5801 5807 5812 5815 5818 5820 5824 5827 5830 5834 5836 5838 5842 5846 5852 5855 5860 5864 5869 5873 5877 5880 5884 5889 5889 5891 5894 5896 5898 5901 5901 5900 5899 5899 5898 5897 5894 5891 5886 5882 5878 5875 5872 5868
5791 5795 5800 5806 5811 5813 5817 5820 5823 5827 5831 5834 5835 5839 5841 5846 5851 5855 5859 5865 5868 5872 5876 5879 5882 5886 5889 5892 5894 5896 5897 5898 5897 5897 5896 5896 5897 5892 5888 5884 5879 5875 5872 5869 5864
5783 5788 5793 5800 5805 5809 5813 5816 5820 5824 5827 5831 5832 5835 5837 5842 5848 5852 5857 5860 5864 5867 5873 5876 5878 5881 5886 5889 5891 5893 5894 5895 5895 5895 5895 5894 5891 5887 5885 5881 5877 5873 5870 5865 5860
5776 5782 5786 5793 5799 5803 5807 5811 5816 5822 5822 5826 5828 5831 5834 5838 5843 5848 5853 5857 5861 5864 5868 5869 5874 5878 5883 5885 5887 5890 5893 5894 5894 5893 5892 5890 5888 5888 5881 5877 5874 5871 5866 5861 5856
5768 5774 5780 5786 5794 5798 5802 5807 5813 5815 5820 5823 5825 5827 5830 5834 5839 5844 5849 5853 5857 5861 5865 5868 5871 5875 5880 5883 5886 5889 5891 5894 5894 5894 5895 5888 5884 5883 5878 5874 5871 5866 5862 5857 5852
5760 5767 5773 5780 5786 5792 5797 5803 5808 5811 5815 5819 5822 5825 5828 5831 5835 5840 5845 5849 5853 5858 5862 5865 5868 5872 5877 5881 5886 5887 5890 5894 5893 5894 5893 5885 5880 5877 5874 5872 5868 5862 5858 5853 5848
5752 5759 5765 5774 5780 5785 5792 5798 5802 5806 5811 5815 5818 5821 5824 5828 5832 5836 5842 5847 5851 5856 5860 5863 5867 5870 5875 5878 5884 5885 5885 5886 5885 5885 5884 5885 5876 5874 5871 5868 5863 5859 5854 5850 5846
5743 5751 5758 5766 5773 5778 5786 5792 5797 5802 5806 5810 5814 5818 5821 5824 5829 5832 5837 5843 5848 5853 5856 5858 5863 5868 5872 5876 5879 5881 5883 5883 5882 5883 5882 5881 5875 5871 5868 5863 5860 5856 5851 5847 5843
5735 5742 5751 5758 5766 5772 5780 5786 5791 5796 5801 5806 5809 5813 5816 5820 5824 5829 5834 5839 5844 5848 5851 5856 5861 5867 5869 5872 5876 5878 5878 5879 5879 5879 5879 5879 5878 5868 5863 5860 5856 5852 5849 5845 5840
5726 5734 5743 5751 5760 5767 5775 5781 5786 5791 5796 5800 5804 5808 5812 5816 5821 5825 5830 5835 5839 5843 5849 5854 5857 5862 5866 5869 5872 5874 5875 5874 5876 5877 5872 5871 5870 5864 5860 5856 5853 5850 5846 5842 5837
5718 5726 5735 5744 5754 5762 5768 5775 5779 5786 5790 5796 5800 5803 5808 5813 5817 5821 5825 5830 5835 5840 5845 5850 5854 5860 5863 5867 5869 5870 5871 5871 5871 5871 5867 5867 5866 5859 5856 5853 5850 5847 5843 5839 5835
5710 5718 5727 5736 5747 5756 5763 5769 5774 5781 5786 5791 5796 5800 5805 5809 5813 5817 5823 5827 5832 5837 5842 5847 5852 5858 5863 5865 5865 5865 5867 5867 5867 5866 5865 5861 5857 5855 5852 5850 5846 5843 5840 5836 5832
5700 5709 5719 5729 5740 5748 5756 5764 5769 5776 5782 5787 5792 5796 5801 5807 5810 5814 5819 5824 5829 5834 5840 5845 5850 5854 5857 5858 5859 5860 5862 5862 5861 5860 5858 5854 5852 5850 5848 5846 5842 5840 5837 5833 5828
5691 5701 5711 5723 5734 5744 5750 5757 5763 5771 5778 5783 5788 5792 5798 5802 5804 5808 5816 5821 5825 5832 5837 5842 5847 5850 5852 5854 5854 5855 5856 5857 5855 5854 5852 5850 5848 5846 5844 5841 5839 5836 5834 5830 5826
5682 5693 5703 5714 5726 5734 5744 5751 5757 5766 5772 5778 5784 5789 5794 5799 5803 5808 5813 5818 5824 5829 5835 5840 5843 5845 5847 5847 5847 5850 5851 5851 5851 5850 5848 5845 5843 5841 5839 5837 5835 5834 5831 5827 5822